SCR744 LFMN-EDRY

Flight info

Callsign SCR744
Flight time 0h 51m
Altitude 41000
Route IRMAR DCT BLONA DCT ABULO DCT GODRA/N0409F410 DCT LADOL DCT TEDGO N869 ETAGO DCT SUNEG DCT ITJET
Aircraft HDJT/L-SABDGRWY/H

Departure

Time 2026-05-05 17:23
Airport Nice-Côte d'Azur Airport (LFMN)

Arrival

Time 2026-05-05 18:15
Airport Speyer Airfield (EDRY)
Time Latitude Longitude Altitude Speed Heading
2026-05-05 17:17 43.66661 7.22003 44 ft 0 kts 137°
2026-05-05 17:20 43.66658 7.22006 16 ft 2 kts 146°
2026-05-05 17:21 43.66611 7.22009 16 ft 14 kts 184°
2026-05-05 17:21 43.66511 7.22095 16 ft 18 kts 128°
2026-05-05 17:21 43.66427 7.22204 17 ft 16 kts 134°
2026-05-05 17:22 43.66467 7.22496 16 ft 24 kts 46°
2026-05-05 17:22 43.66506 7.22551 16 ft 26 kts 44°
2026-05-05 17:22 43.66585 7.22755 17 ft 24 kts 83°
2026-05-05 17:22 43.66546 7.22812 17 ft 11 kts 202°
2026-05-05 17:23 43.66362 7.22570 18 ft 78 kts 225°
2026-05-05 17:23 43.65778 7.21778 45 ft 147 kts 220°
2026-05-05 17:23 43.65026 7.20711 429 ft 162 kts 224°
2026-05-05 17:23 43.64202 7.19556 908 ft 175 kts 222°
2026-05-05 17:24 43.63284 7.18343 1429 ft 190 kts 222°
2026-05-05 17:24 43.62293 7.17014 1976 ft 205 kts 219°
2026-05-05 17:24 43.61033 7.16097 2715 ft 206 kts 197°
2026-05-05 17:24 43.59588 7.15901 3344 ft 216 kts 174°
2026-05-05 17:25 43.58162 7.16530 4172 ft 218 kts 152°
2026-05-05 17:25 43.57360 7.17376 4711 ft 221 kts 136°
2026-05-05 17:25 43.56368 7.19906 5709 ft 234 kts 103°
2026-05-05 17:25 43.56396 7.22167 6438 ft 243 kts 77°
2026-05-05 17:26 43.57041 7.24341 7146 ft 248 kts 56°
2026-05-05 17:26 43.58176 7.26131 7899 ft 250 kts 37°
2026-05-05 17:26 43.59666 7.27356 8652 ft 250 kts 18°
2026-05-05 17:26 43.61347 7.27874 9492 ft 247 kts 360°
2026-05-05 17:27 43.63026 7.27661 10239 ft 246 kts 341°
2026-05-05 17:27 43.64594 7.26752 10944 ft 245 kts 326°
2026-05-05 17:27 43.66100 7.25602 11679 ft 249 kts 326°
2026-05-05 17:27 43.67638 7.24459 12422 ft 252 kts 326°
2026-05-05 17:28 43.69191 7.23296 13172 ft 256 kts 325°
2026-05-05 17:28 43.70769 7.22106 13904 ft 260 kts 325°
2026-05-05 17:28 43.72369 7.20901 14588 ft 264 kts 324°
2026-05-05 17:28 43.73994 7.19677 15276 ft 268 kts 324°
2026-05-05 17:29 43.75644 7.18434 15959 ft 272 kts 324°
2026-05-05 17:29 43.77319 7.17170 16616 ft 276 kts 324°
2026-05-05 17:29 43.79001 7.15903 17288 ft 280 kts 324°
2026-05-05 17:29 43.80718 7.14607 18018 ft 283 kts 324°
2026-05-05 17:30 43.82459 7.13291 18659 ft 286 kts 323°
2026-05-05 17:30 43.84223 7.11954 19214 ft 291 kts 324°
2026-05-05 17:30 43.86007 7.10608 19803 ft 293 kts 323°
2026-05-05 17:30 43.87796 7.09257 20496 ft 294 kts 323°
2026-05-05 17:31 43.89601 7.07889 21181 ft 297 kts 322°
2026-05-05 17:31 43.91428 7.06501 21884 ft 300 kts 322°
2026-05-05 17:31 43.93269 7.05105 22579 ft 300 kts 322°
2026-05-05 17:31 43.95119 7.03700 23222 ft 305 kts 322°
2026-05-05 17:32 43.97001 7.02276 23852 ft 310 kts 321°
2026-05-05 17:32 43.98870 7.00852 24435 ft 312 kts 321°
2026-05-05 17:32 44.00781 6.99395 25035 ft 314 kts 321°
2026-05-05 17:32 44.02707 6.97929 25641 ft 317 kts 320°
2026-05-05 17:33 44.04654 6.96440 26156 ft 319 kts 320°
2026-05-05 17:33 44.06608 6.94957 26697 ft 321 kts 320°
2026-05-05 17:33 44.08575 6.93461 27189 ft 323 kts 319°
2026-05-05 17:33 44.10556 6.91946 27709 ft 326 kts 319°
2026-05-05 17:34 44.12540 6.90446 28201 ft 331 kts 321°
2026-05-05 17:34 44.14741 6.89260 28689 ft 347 kts 333°
2026-05-05 17:34 44.17167 6.88599 29222 ft 361 kts 342°
2026-05-05 17:34 44.19682 6.88238 29648 ft 364 kts 342°
2026-05-05 17:35 44.22208 6.87862 30079 ft 367 kts 342°
2026-05-05 17:35 44.24757 6.87463 30390 ft 369 kts 342°
2026-05-05 17:35 44.28040 6.86969 30930 ft 368 kts 342°
2026-05-05 17:35 44.32906 6.86239 31706 ft 369 kts 342°
2026-05-05 17:36 44.35458 6.85845 32071 ft 370 kts 342°
2026-05-05 17:36 44.38018 6.85459 32535 ft 370 kts 342°
2026-05-05 17:36 44.40582 6.85074 32918 ft 371 kts 342°
2026-05-05 17:36 44.43144 6.84686 33336 ft 369 kts 342°
2026-05-05 17:37 44.45693 6.84295 33693 ft 368 kts 342°
2026-05-05 17:37 44.47414 6.84029 34007 ft 369 kts 342°
2026-05-05 17:37 44.50926 6.83499 34495 ft 368 kts 343°
2026-05-05 17:37 44.60972 6.81964 35971 ft 362 kts 345°
2026-05-05 17:38 44.70975 6.80433 37315 ft 358 kts 346°
2026-05-05 17:38 44.79640 6.79102 38481 ft 353 kts 347°
2026-05-05 17:38 44.82102 6.78873 38727 ft 354 kts 352°
2026-05-05 17:38 44.88392 6.78530 39259 ft 352 kts 351°
2026-05-05 17:39 44.98240 6.77899 39904 ft 353 kts 352°
2026-05-05 17:39 45.00802 6.77904 40105 ft 357 kts
2026-05-05 17:39 45.03256 6.78595 40272 ft 361 kts 12°
2026-05-05 17:39 45.06869 6.80044 40524 ft 362 kts 12°
2026-05-05 17:40 45.12958 6.82336 40935 ft 363 kts 11°
2026-05-05 17:40 45.17925 6.84255 40939 ft 375 kts 12°
2026-05-05 17:41 45.23064 6.86221 40935 ft 385 kts 12°
2026-05-05 17:41 45.33393 6.90195 40926 ft 401 kts 12°
2026-05-05 17:41 45.44355 6.94431 40933 ft 413 kts 12°
2026-05-05 17:42 45.57654 6.99706 40936 ft 425 kts 19°
2026-05-05 17:42 45.63020 7.03354 40931 ft 429 kts 24°
2026-05-05 17:43 45.68377 7.07043 40935 ft 430 kts 23°
2026-05-05 17:43 45.81530 7.16129 40943 ft 435 kts 24°
2026-05-05 17:44 46.03423 7.31378 40928 ft 436 kts 24°
2026-05-05 17:44 46.14387 7.39075 40914 ft 436 kts 25°
2026-05-05 17:45 46.30401 7.50979 40912 ft 437 kts 26°
2026-05-05 17:45 46.41153 7.59011 40927 ft 437 kts 26°
2026-05-05 17:46 46.51963 7.67119 40912 ft 438 kts 26°
2026-05-05 17:46 46.62788 7.75272 40924 ft 438 kts 26°
2026-05-05 17:47 46.73604 7.83456 40932 ft 438 kts 26°
2026-05-05 17:47 46.84407 7.91666 40928 ft 438 kts 26°
2026-05-05 17:48 46.95229 7.99929 40911 ft 437 kts 26°
2026-05-05 17:48 47.06018 8.08203 40912 ft 437 kts 26°
2026-05-05 17:49 47.16711 8.16442 40889 ft 436 kts 26°
2026-05-05 17:49 47.27463 8.24763 40888 ft 436 kts 27°
2026-05-05 17:50 47.38194 8.33109 40874 ft 435 kts 27°
2026-05-05 17:50 47.48865 8.41445 40870 ft 435 kts 27°
2026-05-05 17:51 47.57825 8.48474 40884 ft 434 kts 27°
2026-05-05 17:51 47.64001 8.53335 40880 ft 434 kts 27°
2026-05-05 17:51 47.66673 8.55442 40721 ft 434 kts 27°
2026-05-05 17:52 47.69348 8.57555 40192 ft 432 kts 27°
2026-05-05 17:52 47.72004 8.59655 39617 ft 429 kts 27°
2026-05-05 17:52 47.74596 8.61706 39059 ft 430 kts 27°
2026-05-05 17:52 47.77246 8.63805 38482 ft 432 kts 27°
2026-05-05 17:53 47.79904 8.65913 37852 ft 432 kts 27°
2026-05-05 17:53 47.82560 8.68023 37277 ft 433 kts 27°
2026-05-05 17:53 47.85229 8.70146 36703 ft 434 kts 27°
2026-05-05 17:53 47.87893 8.72266 36137 ft 435 kts 28°
2026-05-05 17:54 47.90565 8.74395 35557 ft 434 kts 28°
2026-05-05 17:54 47.93226 8.76519 34984 ft 433 kts 28°
2026-05-05 17:54 47.95849 8.78614 34420 ft 432 kts 28°
2026-05-05 17:54 47.98503 8.80737 33842 ft 433 kts 28°
2026-05-05 17:55 48.01164 8.82867 33229 ft 433 kts 28°
2026-05-05 17:55 48.03821 8.84997 32658 ft 434 kts 28°
2026-05-05 17:55 48.06483 8.87134 32069 ft 434 kts 28°
2026-05-05 17:55 48.09147 8.89274 31504 ft 434 kts 28°
2026-05-05 17:56 48.11804 8.91411 30930 ft 431 kts 29°
2026-05-05 17:56 48.14448 8.93541 30355 ft 431 kts 29°
2026-05-05 17:56 48.17106 8.95641 29764 ft 432 kts 26°
2026-05-05 17:56 48.19818 8.97486 29175 ft 434 kts 24°
2026-05-05 17:57 48.22584 8.99291 28597 ft 434 kts 23°
2026-05-05 17:57 48.25425 9.00699 27904 ft 426 kts 13°
2026-05-05 17:57 48.28336 9.01330 27121 ft 423 kts
2026-05-05 17:57 48.31286 9.01167 26342 ft 420 kts 351°
2026-05-05 17:58 48.34110 9.00231 25590 ft 411 kts 340°
2026-05-05 17:58 48.36727 8.98602 24650 ft 405 kts 332°
2026-05-05 17:58 48.39083 8.96654 23495 ft 384 kts 328°
2026-05-05 17:58 48.41452 8.94630 22359 ft 392 kts 330°
2026-05-05 17:59 48.43916 8.92937 21414 ft 386 kts 337°
2026-05-05 17:59 48.46432 8.91571 20490 ft 380 kts 339°
2026-05-05 17:59 48.48891 8.90193 19792 ft 370 kts 335°
2026-05-05 17:59 48.51247 8.88654 19381 ft 369 kts 333°
2026-05-05 18:00 48.53593 8.87118 18802 ft 366 kts 334°
2026-05-05 18:00 48.55934 8.85688 18225 ft 361 kts 335°
2026-05-05 18:00 48.58257 8.84278 17612 ft 357 kts 334°
2026-05-05 18:00 48.60540 8.82842 17040 ft 354 kts 334°
2026-05-05 18:01 48.62781 8.81423 16486 ft 351 kts 334°
2026-05-05 18:01 48.65031 8.80021 15928 ft 348 kts 334°
2026-05-05 18:01 48.67260 8.78633 15375 ft 345 kts 334°
2026-05-05 18:01 48.69469 8.77248 14827 ft 342 kts 334°
2026-05-05 18:02 48.71659 8.75870 14283 ft 339 kts 334°
2026-05-05 18:02 48.73832 8.74506 13745 ft 337 kts 334°
2026-05-05 18:02 48.75994 8.73150 13173 ft 334 kts 334°
2026-05-05 18:02 48.78131 8.71804 12648 ft 332 kts 334°
2026-05-05 18:03 48.80259 8.70466 12114 ft 329 kts 333°
2026-05-05 18:03 48.82365 8.69138 11591 ft 326 kts 333°
2026-05-05 18:03 48.84457 8.67818 11074 ft 323 kts 333°
2026-05-05 18:03 48.86521 8.66516 10564 ft 320 kts 333°
2026-05-05 18:04 48.88548 8.65236 10058 ft 317 kts 333°
2026-05-05 18:04 48.90543 8.63977 9828 ft 298 kts 333°
2026-05-05 18:04 48.92411 8.62886 9822 ft 279 kts 341°
2026-05-05 18:04 48.94312 8.62452 9595 ft 278 kts 351°
2026-05-05 18:05 48.96235 8.62279 9117 ft 275 kts 353°
2026-05-05 18:05 48.98141 8.62157 8595 ft 273 kts 353°
2026-05-05 18:05 49.00036 8.62035 8079 ft 271 kts 353°
2026-05-05 18:05 49.01909 8.61902 7567 ft 268 kts 353°
2026-05-05 18:06 49.03763 8.61767 7150 ft 264 kts 353°
2026-05-05 18:06 49.04967 8.61679 6905 ft 260 kts 353°
2026-05-05 18:06 49.07332 8.61515 6828 ft 252 kts 353°
2026-05-05 18:06 49.09096 8.61397 6826 ft 254 kts 353°
2026-05-05 18:07 49.10860 8.61588 6821 ft 259 kts 15°
2026-05-05 18:07 49.12394 8.63022 6826 ft 263 kts 46°
2026-05-05 18:07 49.13326 8.65386 6499 ft 265 kts 75°
2026-05-05 18:07 49.13430 8.68139 6012 ft 259 kts 105°
2026-05-05 18:08 49.12671 8.70544 5511 ft 249 kts 135°
2026-05-05 18:08 49.11284 8.71961 5124 ft 235 kts 167°
2026-05-05 18:08 49.09732 8.72012 4869 ft 217 kts 200°
2026-05-05 18:08 49.08534 8.70797 4643 ft 205 kts 233°
2026-05-05 18:09 49.07870 8.68914 4412 ft 199 kts 246°
2026-05-05 18:09 49.07340 8.66978 4350 ft 197 kts 247°
2026-05-05 18:09 49.06880 8.65024 4330 ft 199 kts 260°
2026-05-05 18:09 49.07010 8.62912 4272 ft 203 kts 283°
2026-05-05 18:10 49.07463 8.60872 4177 ft 203 kts 286°
2026-05-05 18:10 49.07889 8.58829 4099 ft 199 kts 283°
2026-05-05 18:10 49.08242 8.56965 5256 ft 177 kts 284°
2026-05-05 18:10 49.08854 8.55146 5230 ft 210 kts 305°
2026-05-05 18:11 49.09987 8.53664 4879 ft 217 kts 325°
2026-05-05 18:11 49.11392 8.52845 4587 ft 218 kts 342°
2026-05-05 18:11 49.12865 8.52294 4250 ft 216 kts 341°
2026-05-05 18:11 49.14318 8.51707 3913 ft 215 kts 341°
2026-05-05 18:12 49.15756 8.51122 3577 ft 211 kts 341°
2026-05-05 18:12 49.17149 8.50561 3251 ft 208 kts 341°
2026-05-05 18:12 49.18542 8.50000 2929 ft 205 kts 341°
2026-05-05 18:12 49.19911 8.49447 2606 ft 202 kts 342°
2026-05-05 18:13 49.21246 8.48910 2291 ft 193 kts 342°
2026-05-05 18:13 49.22529 8.48393 1994 ft 190 kts 343°
2026-05-05 18:13 49.23802 8.47878 1700 ft 185 kts 343°
2026-05-05 18:13 49.25009 8.47391 1413 ft 177 kts 343°
2026-05-05 18:14 49.26173 8.46922 1144 ft 169 kts 342°
2026-05-05 18:14 49.27273 8.46473 874 ft 154 kts 345°
2026-05-05 18:14 49.28234 8.46085 644 ft 133 kts 345°
2026-05-05 18:14 49.29096 8.45732 433 ft 120 kts 346°
2026-05-05 18:15 49.29846 8.45430 326 ft 102 kts 345°
2026-05-05 18:15 49.30459 8.45197 321 ft 67 kts 346°
2026-05-05 18:15 49.30663 8.45098 323 ft 21 kts 347°
2026-05-05 18:15 49.30799 8.45050 323 ft 19 kts 347°
2026-05-05 18:16 49.30848 8.45092 325 ft 8 kts 70°
2026-05-05 18:16 49.30819 8.45142 324 ft 10 kts 160°
2026-05-05 18:16 49.30734 8.45189 324 ft 14 kts 160°
2026-05-05 18:16 49.30643 8.45233 324 ft 13 kts 163°
2026-05-05 18:17 49.30556 8.45269 324 ft 13 kts 164°
2026-05-05 18:17 49.30472 8.45305 323 ft 12 kts 164°
2026-05-05 18:17 49.30390 8.45341 323 ft 12 kts 164°
2026-05-05 18:17 49.30313 8.45372 324 ft 11 kts 169°
2026-05-05 18:18 49.30300 8.45433 324 ft 4 kts 69°
2026-05-05 18:18 49.30307 8.45441 324 ft 0 kts
2026-05-05 18:18 49.30311 8.45438 324 ft 1 kts 308°
2026-05-05 18:18 49.30311 8.45426 324 ft 2 kts 248°
2026-05-05 18:19 49.30310 8.45425 324 ft 0 kts 254°